FW2928 Weather Reports


time (UTC)temp
C
wind
direction
speed
KPH
gust
KPH
rain 1hr
cm
rain 24hr
cm
rain mn
cm
humidity
%
barometer
mb
20260507064820 15 75 0.0 0.0 0.00 8.41 0.00 81 1014.2
20260507064527 15 57 0.0 0.0 0.00 1.68 0.00 82 1014.2
20260507064327 15 193 0.0 0.0 0.00 8.41 0.00 82 1014.2
20260507063829 15 105 0.0 9.7 0.00 8.41 0.00 82 1014.2
20260507063338 15 69 4.8 9.7 0.00 8.41 0.00 83 1014.1
20260507063008 14 91 3.2 9.7 0.00 1.68 0.00 83 1013.9
20260507062839 14 71 3.2 9.7 0.00 8.41 0.00 83 1014.0
20260507062343 14 68 3.2 8.0 0.00 8.41 0.00 84 1013.9
20260507061846 14 193 0.0 0.0 0.00 8.41 0.00 85 1013.9
20260507061559 13 193 0.0 0.0 0.00 1.68 0.00 85 1013.9
20260507061327 14 193 0.0 0.0 0.00 8.41 0.00 85 1013.9
20260507060815 14 193 0.0 0.0 0.00 8.41 0.00 86 1013.9
20260507060316 13 193 0.0 0.0 0.00 8.41 0.00 86 1013.9
20260507060027 13 193 0.0 0.0 0.00 2.18 0.00 87 1013.8
20260507055823 13 193 0.0 0.0 0.00 10.90 0.00 87 1013.9
20260507055322 13 193 0.0 0.0 0.00 10.90 0.00 88 1013.8
20260507054831 13 193 0.0 6.4 0.00 10.90 0.00 88 1013.8
20260507054559 12 193 0.0 6.4 0.00 2.18 0.00 88 1013.7
20260507054332 13 193 0.0 6.4 0.00 10.90 0.00 88 1013.7
20260507053814 12 193 0.0 0.0 0.00 10.90 0.00 88 1013.7
20260507053343 12 193 0.0 0.0 0.00 10.90 0.00 88 1013.6
20260507053025 12 193 0.0 0.0 0.00 2.18 0.00 88 1013.5
20260507052826 12 70 0.0 0.0 0.00 10.90 0.00 87 1013.5
20260507052327 12 75 0.0 0.0 0.00 10.90 0.00 87 1013.5
20260507051837 11 75 0.0 0.0 0.00 10.90 0.00 87 1013.4
20260507051515 11 75 0.0 0.0 0.00 2.18 0.00 87 1013.5
20260507051336 11 75 0.0 0.0 0.00 10.90 0.00 87 1013.5
20260507050816 10 75 0.0 0.0 0.00 10.90 0.00 88 1013.5
20260507050325 10 75 0.0 0.0 0.00 10.90 0.00 88 1013.5
20260507050049 10 75 0.0 0.0 0.00 2.21 0.00 88 1013.4
20260507045853 10 75 0.0 0.0 0.00 11.00 0.00 88 1013.4
20260507045314 10 75 0.0 0.0 0.00 11.00 0.00 87 1013.4
20260507044816 10 75 0.0 0.0 0.00 11.00 0.00 87 1013.3
20260507044530 10 75 0.0 0.0 0.00 2.21 0.00 87 1013.3
20260507044325 10 75 0.0 0.0 0.00 11.00 0.00 87 1013.3
20260507043855 10 75 0.0 0.0 0.00 11.00 0.00 88 1013.3
20260507043356 10 75 0.0 0.0 0.00 11.00 0.00 88 1013.3
20260507043013 9 75 0.0 0.0 0.00 2.21 0.00 88 1013.3
20260507042822 10 75 0.0 0.0 0.00 11.00 0.00 88 1013.2
20260507042324 10 75 0.0 0.0 0.00 11.00 0.00 88 1013.1
20260507041833 9 75 0.0 0.0 0.00 11.00 0.00 88 1013.2
20260507041515 9 75 0.0 0.0 0.00 2.21 0.00 88 1013.2
20260507041340 9 75 0.0 0.0 0.00 11.00 0.00 88 1013.2
20260507040821 9 75 0.0 0.0 0.00 11.00 0.00 88 1013.1
20260507040323 9 75 0.0 0.0 0.00 11.00 0.00 88 1013.1
20260507040036 9 75 0.0 0.0 0.00 2.24 0.00 88 1013.0
20260507035831 9 75 0.0 0.0 0.00 11.20 0.00 88 1013.1
20260507035330 9 75 0.0 0.0 0.00 11.20 0.00 88 1013.2
20260507034832 10 75 0.0 0.0 0.00 11.20 0.00 88 1013.2
20260507034526 9 75 0.0 0.0 0.00 2.24 0.00 88 1013.2
20260507034341 10 75 0.0 0.0 0.00 11.20 0.00 88 1013.2
20260507033850 10 75 0.0 0.0 0.00 11.20 0.00 88 1013.1
20260507033331 10 75 0.0 0.0 0.00 11.20 0.00 88 1013.2
20260507033039 10 75 0.0 0.0 0.00 2.24 0.00 88 1013.2
20260507032837 10 75 0.0 0.0 0.00 11.20 0.00 88 1013.2
20260507032319 10 75 0.0 0.0 0.00 11.20 0.00 88 1013.1
20260507031819 10 75 0.0 0.0 0.00 11.20 0.00 88 1013.1
20260507031529 10 75 0.0 0.0 0.00 2.24 0.00 88 1013.2
20260507031329 10 75 0.0 0.0 0.00 11.20 0.00 88 1013.1
20260507030830 10 75 0.0 0.0 0.00 11.20 0.00 88 1013.2
20260507030338 10 75 0.0 0.0 0.00 11.20 0.00 88 1013.2
20260507030018 10 75 0.0 0.0 0.00 3.91 0.00 88 1013.0
20260507025852 10 75 0.0 0.0 0.00 19.61 0.00 88 1013.1
20260507025339 10 75 0.0 0.0 0.00 19.61 0.00 88 1013.1
20260507024819 10 75 0.0 0.0 0.00 19.61 0.00 88 1013.2
20260507024524 10 75 0.0 0.0 0.00 3.91 0.00 88 1013.2
20260507024327 11 75 0.0 0.0 0.00 19.61 0.00 88 1013.1
20260507023830 11 75 0.0 0.0 0.00 19.61 0.00 88 1013.2
20260507023338 11 75 0.0 0.0 0.00 19.61 0.00 88 1013.1
20260507023016 10 75 0.0 0.0 0.00 3.91 0.00 88 1013.1
20260507022820 11 75 0.0 0.0 0.00 19.61 0.00 88 1013.0
20260507022328 11 75 0.0 0.0 0.00 19.61 0.00 88 1013.1
20260507021829 11 75 0.0 0.0 0.00 19.61 0.00 88 1013.1
20260507021546 11 75 0.0 0.0 0.00 3.91 0.00 88 1013.0
20260507021358 11 75 0.0 0.0 0.00 19.61 0.00 88 1013.2
20260507020817 11 75 0.0 0.0 0.00 19.61 0.00 88 1013.1
20260507020318 11 75 0.0 0.0 0.00 19.61 0.00 88 1013.0
20260507020017 11 75 0.0 0.0 0.00 4.14 0.00 88 1013.1
20260507015827 11 75 0.0 0.0 0.00 20.70 0.00 88 1013.1
20260507015322 11 75 0.0 0.0 0.00 20.70 0.00 88 1013.1
20260507014831 11 59 0.0 0.0 0.00 20.70 0.00 88 1013.1
20260507014506 11 65 0.0 0.0 0.00 4.14 0.00 88 1013.1
20260507014333 11 105 0.0 0.0 0.00 20.70 0.00 88 1013.1
20260507013821 11 86 0.0 0.0 0.00 20.70 0.00 88 1013.0
20260507013322 11 82 0.0 0.0 0.00 20.70 0.00 88 1013.1
20260507013042 11 99 0.0 0.0 0.00 4.14 0.00 88 1013.0
20260507012852 12 99 0.0 0.0 0.00 20.70 0.00 88 1013.1
20260507012358 12 99 0.0 0.0 0.00 20.70 0.00 88 1013.1
20260507011818 12 83 0.0 0.0 0.00 20.70 0.00 88 1013.1
20260507011548 11 76 0.0 0.0 0.00 4.14 0.00 88 1013.0
20260507011320 12 74 0.0 0.0 0.00 20.70 0.00 88 1013.0
20260507010829 12 82 0.0 0.0 0.00 20.70 0.00 88 1013.0
20260507010338 12 82 0.0 0.0 0.00 20.70 0.00 88 1013.0
20260507010015 11 78 0.0 0.0 0.00 4.34 0.00 88 1013.0
20260507005814 12 78 0.0 0.0 0.00 21.69 0.00 88 1013.1
20260507005313 12 90 0.0 0.0 0.00 21.69 0.00 88 1013.1
20260507004822 12 87 0.0 0.0 0.00 21.69 0.00 88 1013.1
20260507004547 11 88 0.0 0.0 0.00 4.34 0.00 88 1013.1
20260507004324 12 67 0.0 0.0 0.00 21.69 0.00 88 1013.1
20260507003833 12 84 0.0 0.0 0.00 21.69 0.00 88 1013.1
20260507003335 12 91 0.0 0.0 0.00 21.69 0.00 88 1013.1
20260507003029 11 66 0.0 0.0 0.00 4.34 0.00 88 1013.0
20260507002827 12 93 0.0 0.0 0.00 21.69 0.00 88 1013.1
20260507002328 12 79 0.0 0.0 0.00 21.69 0.00 88 1013.2
20260507001837 12 81 0.0 0.0 0.00 21.69 0.00 88 1013.0
20260507001514 11 84 0.0 0.0 0.00 4.34 0.00 88 1013.0
20260507001339 12 84 0.0 1.6 0.00 21.69 0.00 88 1013.0
20260507000837 12 70 0.0 3.2 0.00 21.69 0.00 88 1013.0
20260507000321 12 70 0.0 3.2 0.00 21.69 0.00 88 1013.1
20260507000058 12 70 0.0 3.2 0.00 5.66 0.00 88 1013.2
20260506235820 12 91 0.0 0.0 0.00 2.82 0.00 88 1013.1
20260506235329 12 91 0.0 0.0 0.00 2.82 0.00 88 1013.2
20260506234830 12 91 0.0 0.0 0.00 2.82 0.00 88 1013.2
20260506234559 12 91 0.0 0.0 0.00 5.66 0.00 88 1013.1
20260506234400 12 91 0.0 0.0 0.00 2.82 0.00 88 1013.2
20260506233839 12 91 0.0 1.6 0.00 2.82 0.00 88 1013.2
20260506233324 12 91 0.0 6.4 0.00 2.82 0.00 88 1013.1
20260506233101 12 91 0.0 6.4 0.00 5.66 0.00 88 1013.1
20260506232829 12 91 0.0 9.7 0.00 2.82 0.00 88 1013.1
20260506232346 12 98 4.8 9.7 0.00 2.82 0.00 88 1013.1
20260506231833 12 195 0.0 0.0 0.00 2.82 0.00 88 1013.3
20260506231601 12 195 0.0 0.0 0.00 5.66 0.00 88 1013.2
20260506231314 12 195 0.0 0.0 0.00 2.82 0.00 88 1013.3
20260506230326 12 195 0.0 0.0 0.00 2.82 0.00 88 1013.2
20260506230100 12 195 0.0 0.0 0.00 7.98 0.00 88 1013.2
20260506225829 12 195 0.0 0.0 0.00 3.99 0.00 88 1013.2
20260506225337 12 195 0.0 0.0 0.00 3.99 0.00 88 1013.2
20260506224839 12 195 0.0 0.0 0.00 3.99 0.00 88 1013.1
20260506224528 12 195 0.0 0.0 0.00 7.98 0.00 88 1013.2
20260506224326 12 195 0.0 0.0 0.00 3.99 0.00 88 1013.1
20260506223914 12 195 0.0 0.0 0.00 3.99 0.00 88 1013.1
20260506223336 12 195 0.0 0.0 0.00 3.99 0.00 88 1013.2
20260506223058 12 195 0.0 0.0 0.00 7.98 0.00 88 1013.1
20260506222816 12 195 0.0 0.0 0.00 3.99 0.00 88 1013.2
20260506222324 13 195 0.0 0.0 0.00 3.99 0.00 88 1013.2
20260506221825 13 195 0.0 0.0 0.00 3.99 0.00 88 1013.2
20260506221546 12 195 0.0 0.0 0.00 7.98 0.00 88 1013.2
20260506221326 13 195 0.0 0.0 0.00 3.99 0.00 88 1013.1
20260506220814 13 195 0.0 0.0 0.00 3.99 0.00 88 1013.2
20260506220315 13 195 0.0 0.0 0.00 3.99 0.00 88 1013.1
20260506220037 13 195 0.0 0.0 0.00 7.98 7.98 88 1013.0
20260506215844 13 195 0.0 0.0 0.00 3.99 7.98 88 1013.1
20260506215325 13 195 0.0 0.0 0.00 3.99 7.98 88 1013.0
20260506214833 13 195 0.0 0.0 0.00 3.99 7.98 88 1013.1
20260506214507 13 195 0.0 0.0 0.00 7.98 7.98 88 1013.1
20260506214334 13 195 0.0 0.0 0.00 3.99 7.98 88 1013.1
20260506213828 13 195 0.0 0.0 0.00 3.99 7.98 88 1013.0
20260506213323 13 195 0.0 0.0 0.00 3.99 7.98 88 1013.0
20260506213038 13 195 0.0 0.0 0.00 7.98 7.98 88 1013.0
20260506212817 13 195 0.0 0.0 0.00 3.99 7.98 88 1013.1
20260506212345 13 195 0.0 0.0 0.00 3.99 7.98 88 1013.1
20260506211831 13 195 0.0 0.0 0.00 3.99 7.98 88 1013.0
20260506211506 13 195 0.0 0.0 0.00 7.98 7.98 88 1013.0
20260506211312 14 195 0.0 0.0 0.00 3.99 7.98 88 1013.0
20260506210813 14 195 0.0 0.0 0.00 3.99 7.98 88 1013.0
20260506210321 14 195 0.0 0.0 0.00 3.99 7.98 88 1013.0
20260506210101 13 195 0.0 0.0 0.00 7.98 7.98 88 1012.9
20260506205849 14 195 0.0 0.0 0.00 3.99 7.98 88 1013.0
20260506205325 14 195 0.0 0.0 0.00 3.99 7.98 88 1012.9
20260506204826 14 195 0.0 0.0 0.00 3.99 7.98 87 1012.9
20260506204520 13 195 0.0 0.0 0.00 7.98 7.98 87 1012.8
20260506204312 14 195 0.0 0.0 0.00 3.99 7.98 87 1013.0
20260506203834 14 195 0.0 0.0 0.00 3.99 7.98 87 1012.8
20260506203320 14 195 0.0 0.0 0.00 3.99 7.98 87 1012.7
20260506203047 14 195 0.0 0.0 0.00 7.98 7.98 87 1012.7
20260506202846 14 195 0.0 0.0 0.00 3.99 7.98 87 1012.7
20260506202321 14 195 0.0 0.0 0.00 3.99 7.98 86 1012.6
20260506201829 15 195 0.0 0.0 0.00 3.99 7.98 86 1012.5
20260506201600 14 195 0.0 0.0 0.00 7.98 7.98 86 1012.5
20260506201354 15 195 0.0 0.0 0.00 3.99 7.98 86 1012.6
20260506200813 15 195 0.0 0.0 0.00 3.99 7.98 86 1012.6
20260506200339 15 195 0.0 0.0 0.00 3.99 7.98 86 1012.6
20260506200015 15 195 0.0 0.0 0.00 7.98 7.98 86 1012.5
20260506195815 15 195 0.0 0.0 0.00 3.99 7.98 85 1012.6
20260506195332 15 195 0.0 0.0 0.00 3.99 7.98 85 1012.3
20260506194817 15 195 0.0 0.0 0.00 3.99 7.98 85 1012.3
20260506194619 15 195 0.0 0.0 0.00 7.98 7.98 84 1012.2
20260506194316 15 195 0.0 0.0 0.00 3.99 7.98 84 1012.1
20260506193908 15 195 0.0 0.0 0.00 3.99 7.98 84 1012.1
20260506193831 15 195 0.0 0.0 0.00 3.99 7.98 84 1012.1
20260506193321 15 195 0.0 0.0 0.00 3.99 7.98 84 1011.9
20260506193014 15 195 0.0 0.0 0.00 7.98 7.98 84 1012.0
20260506192822 16 195 0.0 0.0 0.00 3.99 7.98 84 1012.0
20260506192345 16 195 0.0 0.0 0.00 3.99 7.98 84 1012.0
20260506191848 16 195 0.0 0.0 0.00 3.99 7.98 83 1011.8
20260506191505 15 195 0.0 0.0 0.00 7.98 7.98 83 1011.8
20260506191340 16 195 0.0 0.0 0.00 3.99 7.98 83 1011.8
20260506190841 16 195 0.0 0.0 0.00 3.99 7.98 83 1011.7
20260506190332 16 195 0.0 0.0 0.00 3.99 7.98 82 1011.6
20260506190055 16 195 0.0 0.0 0.00 8.05 7.98 82 1011.4
20260506185856 16 195 0.0 0.0 0.00 4.01 7.98 82 1011.5
20260506185335 16 195 0.0 0.0 0.00 4.01 7.98 82 1011.4
20260506184828 16 195 0.0 0.0 0.00 4.01 7.98 81 1011.4
20260506184502 16 195 0.0 0.0 0.00 8.05 7.98 81 1011.3
20260506184325 16 195 0.0 0.0 0.00 4.01 7.98 81 1011.4
20260506183825 16 195 0.0 0.0 0.00 4.01 7.98 80 1011.4
20260506183313 16 195 0.0 0.0 0.00 4.01 7.98 79 1011.4
20260506183103 16 195 0.0 0.0 0.00 8.05 7.98 79 1011.3
20260506182815 16 195 0.0 0.0 0.00 4.01 7.98 78 1011.2
20260506182317 16 195 0.0 0.0 0.00 4.01 7.98 78 1011.2
20260506181838 16 195 0.0 0.0 0.00 4.01 7.98 78 1011.2
20260506181509 16 195 0.0 0.0 0.00 8.05 7.98 78 1011.2
20260506181314 16 195 0.0 0.0 0.00 4.01 7.98 78 1011.1
20260506180813 17 195 0.0 0.0 0.00 4.01 7.98 78 1011.0
20260506180320 17 195 0.0 0.0 0.00 4.01 7.98 78 1011.1
20260506180058 16 195 0.0 0.0 0.00 8.05 7.98 78 1011.0
20260506175821 17 195 0.0 0.0 0.00 4.01 7.98 77 1011.2
20260506175327 17 195 0.0 0.0 0.00 4.01 7.98 76 1011.0
20260506174850 17 195 0.0 0.0 0.00 4.01 7.98 76 1011.0
20260506174526 17 195 0.0 0.0 0.00 8.05 7.98 76 1010.9
20260506174335 17 195 0.0 0.0 0.00 4.01 7.98 76 1010.9
20260506173837 17 195 0.0 0.0 0.00 4.01 7.98 76 1010.8
20260506173338 17 195 0.0 0.0 0.00 4.01 7.98 74 1010.8
20260506173013 17 195 0.0 0.0 0.00 8.05 7.98 74 1010.8
20260506172826 17 195 0.0 0.0 0.00 4.01 7.98 74 1010.8
20260506172326 18 195 0.0 0.0 0.00 4.01 7.98 74 1010.8
20260506171812 17 195 0.0 0.0 0.00 4.01 7.98 75 1010.8
20260506171504 17 195 0.0 0.0 0.00 8.05 7.98 75 1010.7
20260506171315 17 195 0.0 0.0 0.00 4.01 7.98 74 1010.7
20260506170822 17 195 0.0 0.0 0.00 4.01 7.98 75 1010.7
20260506170349 17 195 0.0 6.4 0.00 4.01 7.98 74 1010.8
20260506170011 17 195 0.0 6.4 0.00 8.05 7.98 74 1010.8
20260506165826 17 195 1.6 6.4 0.00 4.01 7.98 74 1010.8
20260506165327 17 195 0.0 1.6 0.00 4.01 7.98 74 1011.0
20260506164855 17 195 0.0 1.6 0.00 4.01 7.98 75 1010.9
20260506164520 17 195 0.0 3.2 0.00 8.05 7.98 75 1010.9
20260506164322 17 195 0.0 3.2 0.00 4.01 7.98 75 1011.0
20260506163930 17 195 1.6 6.4 0.00 4.01 7.98 74 1011.0
20260506163848 17 195 1.6 6.4 0.00 4.01 7.98 74 1011.0
20260506163334 17 195 1.6 6.4 0.00 4.01 7.98 73 1010.9
20260506163102 17 195 0.0 6.4 0.00 8.05 7.98 73 1010.9
20260506162844 18 195 1.6 6.4 0.00 4.01 7.98 72 1010.9
20260506162316 18 195 0.0 9.7 0.00 4.01 7.98 73 1010.9
20260506161818 18 195 3.2 9.7 0.00 4.01 7.98 70 1010.9
20260506161540 18 195 0.0 6.4 0.00 8.05 7.98 71 1010.8
20260506161320 18 195 1.6 8.0 0.00 4.01 7.98 70 1010.9
20260506160828 18 195 1.6 8.0 0.00 4.01 7.98 69 1010.8
20260506160330 18 195 1.6 8.0 0.00 4.01 7.98 68 1010.9
20260506160026 18 195 1.6 11.3 0.00 8.05 7.98 68 1010.8
20260506155836 19 195 1.6 11.3 0.00 4.01 7.98 68 1010.8
20260506155337 18 195 4.8 11.3 0.00 4.01 7.98 67 1010.9
20260506154825 18 195 4.8 11.3 0.00 4.01 7.98 67 1010.9
20260506154605 18 195 3.2 11.3 0.00 8.05 7.98 66 1010.8
20260506154327 18 195 4.8 11.3 0.00 4.01 7.98 67 1010.9
20260506153833 18 195 4.8 11.3 0.00 4.01 7.98 67 1010.8
20260506153332 18 287 4.8 12.9 0.00 4.01 7.98 66 1010.9
20260506153046 18 277 3.2 17.7 0.00 8.05 7.98 65 1010.9
20260506152838 18 240 4.8 17.7 0.00 4.01 7.98 64 1011.0
20260506152327 19 195 8.0 16.1 0.00 4.01 7.98 60 1010.8
20260506151835 19 299 8.0 16.1 0.00 4.01 7.98 59 1010.8
20260506151506 19 193 6.4 16.1 0.00 8.05 7.98 57 1010.8
20260506151315 20 272 6.4 16.1 0.00 4.01 7.98 58 1010.8
20260506150823 20 195 3.2 11.3 0.00 4.01 7.98 61 1010.8
20260506150324 20 195 3.2 12.9 0.00 4.01 7.98 62 1010.9
20260506150038 19 195 4.8 12.9 0.00 8.05 7.98 62 1010.8
20260506145846 19 195 3.2 12.9 0.00 4.01 7.98 65 1010.9
20260506145326 19 195 4.8 14.5 0.00 4.01 7.98 66 1010.9
20260506144835 19 194 4.8 17.7 0.00 4.01 7.98 68 1010.8
20260506144501 18 194 4.8 17.7 0.00 8.05 7.98 68 1010.7
20260506144316 19 195 3.2 14.5 0.00 4.01 7.98 69 1010.8
20260506143823 19 195 6.4 24.1 0.00 4.01 7.98 70 1010.8
20260506143320 19 194 4.8 24.1 0.00 4.01 7.98 74 1010.7
20260506143033 18 281 6.4 16.1 0.00 8.05 7.98 74 1010.6
20260506142830 19 24 6.4 17.7 0.00 4.01 7.98 76 1010.7
20260506142332 18 195 8.0 17.7 0.00 4.01 7.98 76 1010.6
20260506141839 19 283 9.7 17.7 0.00 4.01 7.98 77 1010.4
20260506141522 18 194 6.4 16.1 0.00 8.05 7.98 79 1010.6
20260506141321 19 194 4.8 16.1 0.00 4.01 7.98 80 1010.6
20260506140823 18 237 4.8 17.7 0.00 4.01 7.98 82 1010.6
20260506140329 18 195 3.2 14.5 0.00 4.01 7.98 83 1010.7
20260506140012 18 195 6.4 14.5 0.00 8.05 7.98 82 1010.7
20260506135830 18 195 6.4 14.5 0.00 4.01 7.98 82 1010.7
20260506135332 18 195 6.4 12.9 0.00 4.01 7.98 82 1010.6
20260506134820 18 195 6.4 16.1 0.00 4.01 7.98 82 1010.7
20260506134503 18 194 1.6 16.1 0.00 8.05 7.98 83 1010.6
20260506134321 18 194 4.8 16.1 0.00 4.01 7.98 82 1010.6
20260506133839 18 195 3.2 8.0 0.00 4.01 7.98 82 1010.7
20260506133320 18 195 3.2 9.7 0.00 4.01 7.98 82 1010.7
20260506133020 18 195 3.2 11.3 0.00 8.05 7.98 82 1010.7
20260506132843 18 195 4.8 11.3 0.10 4.01 7.98 82 1010.8
20260506132330 18 195 3.2 14.5 2.90 4.01 7.98 82 1010.7
20260506131827 19 195 6.4 14.5 3.00 4.01 7.98 81 1010.7
20260506131547 18 207 4.8 16.1 0.71 8.05 7.98 83 1010.8
20260506131330 19 195 3.2 16.1 5.21 4.01 7.98 84 1010.8
20260506130828 18 195 4.8 16.1 5.31 4.01 7.98 84 1010.9
20260506130337 18 193 4.8 14.5 7.01 4.01 7.98 86 1010.9
20260506130014 17 207 4.8 14.5 1.55 8.05 7.98 86 1011.0
20260506125819 17 195 8.0 14.5 8.00 4.01 7.98 86 1010.9
20260506125320 17 254 4.8 14.5 8.31 4.01 7.98 87 1010.9
20260506124829 16 251 4.8 14.5 8.31 4.01 7.98 87 1010.9
20260506123832 16 195 0.0 8.0 8.31 4.01 7.98 87 1011.0
20260506123333 15 195 0.0 8.0 8.31 4.01 7.98 87 1010.9
20260506123100 15 195 1.6 8.0 1.65 8.05 7.98 87 1010.8
20260506122814 15 195 1.6 4.8 8.10 3.99 7.95 86 1010.9
20260506122316 15 195 0.0 14.5 5.41 3.71 7.39 83 1011.1
20260506121824 15 195 1.6 14.5 5.31 3.71 7.39 82 1010.9
20260506121654 15 194 4.8 14.5 0.97 7.34 7.29 82 1011.0
20260506121344 15 226 0.0 12.9 3.10 3.48 6.93 82 1011.3
20260506120840 16 281 1.6 20.9 3.00 3.48 6.91 81 1011.1
20260506120329 17 195 11.3 20.9 1.30 3.30 6.58 80 1011.2
20260506120056 17 312 4.8 16.1 0.15 6.53 6.45 81 1010.9
20260506115831 18 257 4.8 16.1 0.20 3.20 6.35 81 1011.0
20260506115324 18 195 4.8 12.9 0.00 3.17 6.32 81 1010.7
20260506114829 19 195 4.8 14.5 0.00 3.17 6.32 79 1010.7
20260506114509 19 195 3.2 14.5 0.00 6.35 6.32 78 1010.6
20260506114329 19 195 6.4 16.1 0.00 3.17 6.32 76 1010.7
20260506113831 20 195 4.8 16.1 0.00 3.17 6.32 77 1010.7
20260506113318 20 195 4.8 14.5 0.00 3.17 6.32 75 1010.7
20260506113102 20 195 3.2 14.5 0.00 6.35 6.32 75 1010.6
20260506112836 20 195 6.4 20.9 0.00 3.17 6.32 72 1010.7
20260506112327 20 193 8.0 20.9 0.00 3.17 6.32 72 1010.6
20260506111828 20 304 4.8 14.5 0.00 3.17 6.32 74 1010.7
20260506111526 20 195 4.8 19.3 0.00 6.35 6.32 74 1010.7
20260506111330 20 195 6.4 19.3 0.00 3.17 6.32 74 1010.6
20260506110830 20 195 6.4 19.3 0.00 3.17 6.32 75 1010.6
20260506110339 20 195 4.8 14.5 0.00 3.17 6.32 74 1010.7
20260506110018 20 195 4.8 16.1 0.00 7.98 6.32 74 1010.6
20260506105820 20 195 3.2 19.3 0.00 3.99 6.32 74 1010.6
20260506105322 20 194 4.8 27.4 0.00 3.99 6.32 73 1010.7
20260506104827 20 197 8.0 27.4 0.00 3.99 6.32 72 1010.6
20260506104503 20 194 3.2 22.5 0.00 7.98 6.32 75 1010.7
20260506104327 20 194 8.0 22.5 0.00 3.99 6.32 74 1010.6
20260506103837 20 195 8.0 24.1 0.00 3.99 6.32 74 1010.8
20260506103317 20 195 6.4 19.3 0.00 3.99 6.32 74 1010.8
20260506103047 20 232 4.8 22.5 0.00 7.98 6.32 74 1011.0
20260506102846 20 195 8.0 22.5 0.00 3.99 6.32 73 1011.0
20260506102327 20 194 4.8 22.5 0.00 3.99 6.32 74 1010.8
20260506101836 20 196 9.7 20.9 0.00 3.99 6.32 72 1010.7
20260506101546 20 264 4.8 17.7 0.00 7.98 6.32 73 1010.8
20260506101317 20 195 6.4 19.3 0.00 3.99 6.32 73 1010.7
20260506100832 20 195 8.0 19.3 0.00 3.99 6.32 73 1010.8
20260506100319 20 193 6.4 19.3 0.00 3.99 6.32 74 1011.0
20260506100001 20 195 6.4 19.3 0.00 8.41 6.32 75 1010.7
20260506095819 20 195 8.0 19.3 0.00 4.19 6.32 74 1010.5
20260506095320 20 195 6.4 16.1 0.00 4.19 6.32 74 1010.8
20260506094848 20 194 4.8 16.1 0.00 4.19 6.32 75 1010.6
20260506094533 20 195 4.8 12.9 0.00 8.41 6.32 76 1010.6
20260506094336 20 195 3.2 12.9 0.00 4.19 6.32 76 1010.6
20260506093837 19 195 3.2 12.9 0.00 4.19 6.32 76 1010.6
20260506093317 19 195 6.4 12.9 0.00 4.19 6.32 75 1010.6
20260506093053 19 195 6.4 12.9 0.00 8.41 6.32 76 1010.6
20260506092817 19 195 3.2 19.3 0.00 4.19 6.32 77 1010.6
20260506092326 18 195 4.8 19.3 0.10 4.19 6.32 77 1010.7
20260506091828 18 195 6.4 19.3 0.10 4.19 6.32 79 1010.5
20260506091544 18 193 6.4 19.3 0.03 8.41 6.32 78 1010.5
20260506091337 18 195 6.4 19.3 0.10 4.19 6.32 79 1010.5
20260506090817 18 193 3.2 12.9 0.10 4.19 6.32 79 1010.6
20260506090319 18 195 3.2 8.0 0.10 4.19 6.32 79 1010.5
20260506090019 18 195 0.0 8.0 0.03 8.48 6.32 79 1010.5
20260506085827 18 195 1.6 11.3 0.10 4.22 6.32 79 1010.5
20260506085335 18 195 1.6 11.3 0.10 4.22 6.32 79 1010.6
20260506084817 18 195 4.8 11.3 0.10 4.22 6.32 78 1010.5
20260506084607 18 195 3.2 11.3 0.03 8.48 6.32 78 1010.4
20260506084319 18 195 3.2 12.9 0.10 4.22 6.32 79 1010.4
20260506083907 18 195 4.8 12.9 0.10 4.22 6.32 80 1010.4
20260506083829 18 195 4.8 12.9 0.10 4.22 6.32 80 1010.4
20260506083335 18 195 3.2 16.1 0.10 4.22 6.32 82 1010.4
20260506083002 17 195 1.6 16.1 0.03 8.48 6.32 81 1010.4
20260506082815 18 195 4.8 16.1 0.10 4.22 6.32 81 1010.5
20260506082323 17 195 3.2 12.9 0.00 4.22 6.30 82 1010.5
20260506081825 17 194 3.2 14.5 0.00 4.22 6.30 82 1010.6
20260506081540 17 195 4.8 14.5 0.00 8.46 6.30 83 1010.5
20260506081332 17 194 3.2 14.5 0.00 4.22 6.30 83 1010.5
20260506080813 17 195 1.6 8.0 0.00 4.22 6.30 84 1010.5
20260506080340 16 195 3.2 8.0 0.00 4.22 6.30 85 1010.5
20260506080107 16 195 0.0 6.4 0.00 8.53 6.30 85 1010.5
20260506073324 16 195 1.6 11.3 0.00 4.27 6.30 86 1010.5
20260506073022 16 195 1.6 11.3 0.00 8.53 6.30 86 1010.4
20260506072833 16 195 0.0 11.3 0.00 4.27 6.30 86 1010.4
20260506072329 16 195 1.6 12.9 0.00 4.27 6.30 86 1010.3
20260506071838 16 195 3.2 12.9 0.00 4.27 6.30 86 1010.3
20260506071511 16 195 3.2 12.9 0.00 8.53 6.30 87 1010.3
20260506071320 16 195 3.2 11.3 0.00 4.27 6.30 87 1010.3
20260506070842 16 193 1.6 11.3 0.00 4.27 6.30 87 1010.2
20260506070318 16 193 1.6 11.3 0.00 4.27 6.30 87 1010.3